QPF
0.06 0.03 0.04 0.04 0.05 0.05 0.04 0.03 0.05 0.07 0.09 0.17 0.27 0.26 0.23 0.13 0.08 0.06 0.05 0.04 0.03 0.02 0.02 0.02 0.02 0.02 0.02 0.01 0.02 0.02 0.01 0.00 0.00 0.00 0.01 0.00 0.00 0.00 0.00 0.00 0.00 0.00 0.00 0.00
0.08 0.06 0.07 0.10 0.10 0.09 0.07 0.04 0.04 0.06 0.08 0.11 0.14 0.12 0.10 0.08 0.07 0.06 0.06 0.07 0.06 0.06 0.05 0.04 0.03 0.03 0.03 0.02 0.02 0.01 0.01 0.01 0.01 0.01 0.00 0.00 0.00 0.00 0.00 0.00 0.00 0.00 0.00 0.00
0.12 0.12 0.11 0.15 0.13 0.11 0.08 0.05 0.04 0.05 0.06 0.06 0.07 0.06 0.06 0.06 0.06 0.06 0.07 0.07 0.08 0.08 0.07 0.06 0.05 0.03 0.03 0.02 0.02 0.01 0.01 0.01 0.01 0.00 0.00 0.00 0.00 0.00 0.00 0.00 0.00 0.00 0.00 0.00
0.08 0.10 0.16 0.16 0.09 0.07 0.05 0.05 0.05 0.05 0.05 0.07 0.07 0.06 0.05 0.05 0.05 0.06 0.05 0.07 0.08 0.07 0.05 0.04 0.04 0.03 0.02 0.02 0.01 0.01 0.01 0.00 0.00 0.00 0.00 0.00 0.00 0.00 0.00 0.00 0.00 0.00 0.00 0.00
0.06 0.09 0.12 0.12 0.06 0.04 0.03 0.04 0.05 0.05 0.06 0.07 0.08 0.06 0.06 0.06 0.05 0.07 0.08 0.09 0.08 0.06 0.04 0.03 0.02 0.02 0.01 0.01 0.01 0.00 0.00 0.00 0.00 0.00 0.00 0.00 0.00 0.00 0.00 0.00 0.00 0.00 0.00 0.00
0.07 0.10 0.09 0.06 0.03 0.01 0.02 0.04 0.04 0.03 0.03 0.06 0.07 0.05 0.05 0.04 0.06 0.07 0.06 0.06 0.05 0.04 0.02 0.01 0.01 0.01 0.01 0.01 0.01 0.00 0.00 0.00 0.00 0.00 0.00 0.00 0.00 0.00 0.00 0.00 0.00 0.00 0.00 0.00
0.05 0.06 0.05 0.02 0.01 0.01 0.02 0.04 0.04 0.02 0.02 0.03 0.06 0.05 0.03 0.02 0.03 0.05 0.04 0.03 0.03 0.02 0.02 0.02 0.01 0.01 0.01 0.01 0.01 0.00 0.00 0.00 0.00 0.00 0.00 0.00 0.00 0.00 0.00 0.00 0.00 0.00 0.00 0.00
0.03 0.04 0.03 0.02 0.00 0.01 0.01 0.02 0.02 0.01 0.02 0.02 0.02 0.03 0.02 0.02 0.02 0.03 0.04 0.04 0.02 0.02 0.02 0.02 0.01 0.01 0.01 0.01 0.00 0.00 0.00 0.00 0.00 0.00 0.00 0.00 0.00 0.00 0.00 0.00 0.00 0.00 0.00 0.00
0.01 0.01 0.01 0.01 0.00 0.00 0.01 0.01 0.01 0.01 0.01 0.01 0.01 0.02 0.02 0.02 0.02 0.03 0.04 0.03 0.03 0.02 0.01 0.01 0.01 0.02 0.02 0.01 0.01 0.00 0.00 0.00 0.00 0.00 0.00 0.00 0.00 0.00 0.00 0.00 0.00 0.00 0.00 0.00
0.00 0.00 0.00 0.00 0.00 0.01 0.01 0.01 0.01 0.01 0.01 0.01 0.02 0.02 0.02 0.02 0.03 0.03 0.03 0.03 0.02 0.02 0.02 0.01 0.01 0.01 0.01 0.01 0.00 0.00 0.00 0.00 0.00 0.01 0.01 0.01 0.00 0.00 0.00 0.00 0.00 0.00 0.00 0.00
0.00 0.00 0.00 0.00 0.00 0.00 0.00 0.00 0.00 0.01 0.01 0.01 0.02 0.04 0.04 0.03 0.03 0.04 0.04 0.02 0.02 0.02 0.01 0.01 0.00 0.00 0.00 0.00 0.00 0.00 0.00 0.00 0.00 0.00 0.01 0.01 0.01 0.01 0.00 0.00 0.00 0.00 0.00 0.00
0.00 0.00 0.00 0.00 0.00 0.00 0.00 0.00 0.00 0.00 0.01 0.01 0.01 0.03 0.06 0.05 0.05 0.05 0.03 0.02 0.02 0.02 0.01 0.01 0.00 0.00 0.00 0.00 0.00 0.00 0.00 0.00 0.00 0.00 0.00 0.01 0.01 0.01 0.01 0.00 0.00 0.00 0.00 0.00
0.00 0.00 0.00 0.00 0.00 0.00 0.00 0.00 0.00 0.00 0.00 0.01 0.01 0.02 0.04 0.05 0.05 0.05 0.04 0.02 0.01 0.01 0.01 0.00 0.00 0.00 0.00 0.00 0.00 0.00 0.00 0.00 0.00 0.00 0.00 0.01 0.01 0.01 0.00 0.00 0.00 0.00 0.00 0.00
0.00 0.00 0.00 0.00 0.00 0.00 0.00 0.00 0.00 0.00 0.00 0.00 0.00 0.00 0.01 0.01 0.01 0.01 0.01 0.01 0.00 0.00 0.00 0.00 0.00 0.00 0.00 0.00 0.00 0.00 0.00 0.00 0.00 0.00 0.00 0.00 0.00 0.00 0.00 0.00 0.00 0.00 0.00 0.00
0.00 0.00 0.00 0.00 0.00 0.00 0.00 0.00 0.00 0.00 0.00 0.00 0.00 0.00 0.00 0.00 0.00 0.00 0.00 0.00 0.00 0.00 0.00 0.00 0.00 0.00 0.00 0.00 0.00 0.00 0.00 0.00 0.00 0.00 0.00 0.00 0.00 0.00 0.00 0.00 0.00 0.00 0.00 0.00
0.00 0.00 0.00 0.00 0.00 0.00 0.00 0.00 0.00 0.00 0.00 0.00 0.00 0.00 0.00 0.00 0.00 0.00 0.00 0.00 0.00 0.00 0.00 0.00 0.00 0.00 0.00 0.00 0.00 0.00 0.00 0.00 0.00 0.00 0.00 0.00 0.00 0.00 0.00 0.00 0.00 0.00 0.00 0.00
0.00 0.00 0.00 0.00 0.00 0.00 0.00 0.00 0.00 0.00 0.00 0.00 0.00 0.00 0.00 0.00 0.00 0.00 0.00 0.00 0.00 0.00 0.00 0.00 0.00 0.00 0.00 0.00 0.00 0.00 0.00 0.00 0.00 0.00 0.00 0.00 0.00 0.00 0.00 0.00 0.00 0.00 0.00 0.00
0.00 0.00 0.00 0.00 0.00 0.00 0.00 0.00 0.00 0.00 0.00 0.00 0.00 0.00 0.00 0.00 0.00 0.00 0.00 0.00 0.00 0.00 0.00 0.00 0.00 0.00 0.00 0.00 0.00 0.00 0.00 0.00 0.00 0.00 0.00 0.00 0.00 0.00 0.00 0.00 0.00 0.00 0.00 0.00
0.00 0.00 0.00 0.00 0.00 0.00 0.00 0.00 0.00 0.00 0.00 0.00 0.00 0.00 0.00 0.00 0.00 0.00 0.00 0.00 0.00 0.00 0.00 0.00 0.00 0.00 0.00 0.00 0.00 0.00 0.00 0.00 0.00 0.00 0.00 0.00 0.00 0.00 0.00 0.00 0.00 0.00 0.00 0.00
0.00 0.00 0.00 0.00 0.00 0.00 0.00 0.00 0.00 0.00 0.00 0.00 0.00 0.00 0.00 0.00 0.00 0.00 0.00 0.00 0.00 0.00 0.00 0.00 0.00 0.00 0.00 0.00 0.00 0.00 0.00 0.00 0.00 0.00 0.00 0.00 0.00 0.00 0.00 0.00 0.00 0.00 0.00 0.00
0.00 0.00 0.00 0.00 0.00 0.00 0.00 0.00 0.00 0.00 0.00 0.00 0.00 0.00 0.00 0.00 0.00 0.00 0.00 0.00 0.00 0.00 0.00 0.00 0.00 0.00 0.00 0.00 0.00 0.00 0.00 0.00 0.00 0.00 0.00 0.00 0.00 0.00 0.00 0.00 0.00 0.00 0.00 0.00
0.00 0.00 0.00 0.00 0.00 0.00 0.00 0.00 0.00 0.00 0.00 0.00 0.00 0.00 0.00 0.00 0.00 0.00 0.00 0.00 0.00 0.00 0.00 0.00 0.00 0.00 0.00 0.00 0.00 0.00 0.00 0.00 0.00 0.00 0.00 0.00 0.00 0.00 0.00 0.00 0.00 0.00 0.00 0.00
0.00 0.00 0.00 0.00 0.00 0.00 0.00 0.00 0.00 0.00 0.00 0.00 0.00 0.00 0.00 0.00 0.00 0.00 0.00 0.00 0.00 0.00 0.00 0.00 0.00 0.00 0.00 0.00 0.00 0.00 0.00 0.00 0.00 0.00 0.00 0.00 0.00 0.00 0.00 0.00 0.00 0.00 0.00 0.00
0.00 0.00 0.00 0.00 0.00 0.00 0.00 0.00 0.00 0.00 0.00 0.00 0.00 0.00 0.00 0.00 0.00 0.00 0.00 0.00 0.00 0.00 0.00 0.00 0.00 0.00 0.00 0.00 0.00 0.00 0.00 0.00 0.00 0.00 0.00 0.00 0.00 0.00 0.00 0.00 0.00 0.00 0.00 0.00
0.00 0.00 0.00 0.00 0.00 0.00 0.00 0.00 0.00 0.00 0.00 0.00 0.00 0.00 0.00 0.00 0.00 0.00 0.00 0.00 0.00 0.00 0.00 0.00 0.00 0.00 0.00 0.00 0.00 0.00 0.00 0.00 0.00 0.00 0.00 0.00 0.00 0.00 0.00 0.00 0.00 0.00 0.00 0.00
0.00 0.00 0.00 0.00 0.00 0.00 0.00 0.00 0.00 0.00 0.00 0.00 0.00 0.00 0.00 0.00 0.00 0.00 0.00 0.00 0.00 0.00 0.00 0.00 0.00 0.00 0.00 0.00 0.00 0.00 0.00 0.00 0.00 0.00 0.00 0.00 0.00 0.00 0.00 0.00 0.00 0.00 0.00 0.00
0.00 0.00 0.00 0.00 0.00 0.00 0.00 0.00 0.00 0.00 0.00 0.00 0.00 0.00 0.00 0.00 0.00 0.00 0.00 0.00 0.00 0.00 0.00 0.00 0.00 0.00 0.00 0.00 0.00 0.00 0.00 0.00 0.00 0.00 0.00 0.00 0.00 0.00 0.00 0.00 0.00 0.00 0.00 0.00
MSLP
1013.40 1013.58 1013.69 1013.72 1013.70 1013.63 1013.55 1013.49 1013.50 1013.60 1013.84 1014.22 1014.77 1015.46 1016.25 1017.09 1017.94 1018.75 1019.47 1020.07 1020.57 1020.95 1021.27 1021.54 1021.82 1022.11 1022.45 1022.84 1023.25 1023.68 1024.09 1024.45 1024.76 1025.01 1025.20 1025.36 1025.50 1025.65 1025.81 1026.00 1026.20 1026.40 1026.57 1026.69
1013.71 1013.93 1014.03 1014.01 1013.90 1013.72 1013.54 1013.39 1013.34 1013.44 1013.71 1014.18 1014.83 1015.62 1016.51 1017.44 1018.34 1019.17 1019.88 1020.45 1020.90 1021.24 1021.52 1021.78 1022.05 1022.37 1022.75 1023.17 1023.62 1024.07 1024.48 1024.84 1025.13 1025.34 1025.50 1025.62 1025.74 1025.86 1026.03 1026.22 1026.44 1026.65 1026.84 1026.98
1013.92 1014.16 1014.26 1014.21 1014.06 1013.83 1013.59 1013.42 1013.37 1013.49 1013.82 1014.36 1015.10 1015.99 1016.96 1017.95 1018.89 1019.72 1020.41 1020.95 1021.35 1021.66 1021.91 1022.15 1022.42 1022.74 1023.12 1023.54 1023.99 1024.43 1024.81 1025.14 1025.38 1025.55 1025.67 1025.75 1025.84 1025.96 1026.12 1026.32 1026.55 1026.79 1027.00 1027.15
1014.02 1014.27 1014.37 1014.33 1014.16 1013.93 1013.71 1013.55 1013.54 1013.72 1014.11 1014.73 1015.55 1016.51 1017.54 1018.56 1019.51 1020.34 1021.01 1021.52 1021.90 1022.17 1022.39 1022.61 1022.86 1023.17 1023.53 1023.93 1024.35 1024.74 1025.07 1025.34 1025.53 1025.65 1025.72 1025.78 1025.85 1025.96 1026.12 1026.33 1026.57 1026.82 1027.04 1027.20
1014.00 1014.26 1014.37 1014.34 1014.21 1014.02 1013.84 1013.75 1013.80 1014.06 1014.53 1015.22 1016.09 1017.09 1018.15 1019.18 1020.13 1020.94 1021.60 1022.09 1022.44 1022.69 1022.90 1023.10 1023.33 1023.61 1023.94 1024.29 1024.65 1024.98 1025.26 1025.46 1025.60 1025.67 1025.71 1025.74 1025.80 1025.91 1026.07 1026.28 1026.53 1026.78 1027.01 1027.17
1013.87 1014.13 1014.26 1014.27 1014.19 1014.07 1013.98 1013.97 1014.12 1014.45 1014.99 1015.73 1016.64 1017.66 1018.71 1019.73 1020.66 1021.46 1022.09 1022.57 1022.91 1023.15 1023.35 1023.54 1023.75 1024.00 1024.28 1024.59 1024.89 1025.16 1025.38 1025.53 1025.62 1025.66 1025.68 1025.71 1025.77 1025.88 1026.04 1026.26 1026.50 1026.75 1026.96 1027.11
1013.65 1013.91 1014.07 1014.13 1014.13 1014.10 1014.11 1014.21 1014.45 1014.86 1015.46 1016.23 1017.15 1018.16 1019.19 1020.18 1021.08 1021.85 1022.46 1022.92 1023.25 1023.49 1023.69 1023.87 1024.06 1024.29 1024.54 1024.80 1025.05 1025.27 1025.44 1025.56 1025.63 1025.67 1025.69 1025.73 1025.80 1025.92 1026.09 1026.31 1026.54 1026.77 1026.96 1027.09
1013.35 1013.63 1013.83 1013.96 1014.05 1014.14 1014.27 1014.47 1014.81 1015.29 1015.93 1016.72 1017.63 1018.60 1019.59 1020.53 1021.38 1022.10 1022.69 1023.14 1023.47 1023.71 1023.91 1024.08 1024.27 1024.47 1024.69 1024.92 1025.14 1025.33 1025.48 1025.59 1025.67 1025.72 1025.77 1025.84 1025.94 1026.08 1026.26 1026.46 1026.68 1026.88 1027.03 1027.13
1013.03 1013.33 1013.59 1013.81 1014.01 1014.22 1014.46 1014.78 1015.20 1015.74 1016.41 1017.20 1018.07 1019.00 1019.92 1020.80 1021.59 1022.27 1022.83 1023.26 1023.58 1023.83 1024.03 1024.20 1024.38 1024.57 1024.77 1024.97 1025.17 1025.36 1025.51 1025.64 1025.75 1025.84 1025.94 1026.05 1026.18 1026.34 1026.53 1026.72 1026.91 1027.07 1027.18 1027.23
1012.72 1013.07 1013.40 1013.72 1014.04 1014.37 1014.73 1015.15 1015.65 1016.24 1016.92 1017.69 1018.52 1019.38 1020.23 1021.03 1021.76 1022.39 1022.91 1023.32 1023.64 1023.88 1024.08 1024.26 1024.43 1024.61 1024.79 1024.99 1025.18 1025.37 1025.55 1025.71 1025.86 1026.00 1026.15 1026.31 1026.48 1026.66 1026.85 1027.03 1027.19 1027.30 1027.36 1027.36
1012.47 1012.87 1013.29 1013.72 1014.15 1014.60 1015.07 1015.59 1016.15 1016.78 1017.46 1018.20 1018.97 1019.76 1020.54 1021.27 1021.93 1022.51 1022.99 1023.38 1023.68 1023.92 1024.12 1024.29 1024.45 1024.62 1024.79 1024.98 1025.18 1025.38 1025.58 1025.77 1025.97 1026.17 1026.37 1026.57 1026.77 1026.97 1027.15 1027.31 1027.43 1027.50 1027.51 1027.46
1012.28 1012.76 1013.27 1013.80 1014.35 1014.91 1015.49 1016.08 1016.70 1017.34 1018.02 1018.72 1019.44 1020.15 1020.85 1021.51 1022.10 1022.63 1023.07 1023.43 1023.72 1023.95 1024.14 1024.30 1024.45 1024.61 1024.77 1024.95 1025.15 1025.35 1025.57 1025.80 1026.04 1026.28 1026.52 1026.75 1026.97 1027.17 1027.34 1027.47 1027.55 1027.58 1027.55 1027.46
1012.16 1012.72 1013.32 1013.95 1014.61 1015.27 1015.93 1016.59 1017.24 1017.90 1018.56 1019.22 1019.87 1020.52 1021.15 1021.73 1022.27 1022.74 1023.15 1023.49 1023.76 1023.98 1024.16 1024.31 1024.44 1024.58 1024.72 1024.89 1025.07 1025.28 1025.51 1025.76 1026.02 1026.28 1026.54 1026.79 1027.02 1027.21 1027.36 1027.47 1027.51 1027.51 1027.44 1027.33
1012.09 1012.72 1013.41 1014.14 1014.88 1015.62 1016.35 1017.06 1017.74 1018.39 1019.03 1019.65 1020.25 1020.83 1021.39 1021.91 1022.39 1022.83 1023.20 1023.52 1023.78 1023.98 1024.14 1024.27 1024.39 1024.51 1024.63 1024.77 1024.94 1025.14 1025.37 1025.62 1025.88 1026.15 1026.42 1026.67 1026.89 1027.07 1027.21 1027.29 1027.31 1027.28 1027.20 1027.08
1012.03 1012.73 1013.50 1014.30 1015.13 1015.94 1016.72 1017.46 1018.15 1018.79 1019.40 1019.98 1020.52 1021.05 1021.55 1022.02 1022.46 1022.86 1023.21 1023.50 1023.74 1023.94 1024.08 1024.20 1024.30 1024.39 1024.49 1024.60 1024.75 1024.93 1025.14 1025.38 1025.63 1025.90 1026.16 1026.40 1026.62 1026.79 1026.91 1026.97 1026.99 1026.95 1026.87 1026.76
1011.95 1012.72 1013.56 1014.44 1015.33 1016.19 1017.00 1017.76 1018.46 1019.09 1019.66 1020.20 1020.70 1021.17 1021.62 1022.05 1022.46 1022.83 1023.15 1023.43 1023.66 1023.84 1023.98 1024.08 1024.15 1024.22 1024.30 1024.39 1024.51 1024.66 1024.85 1025.07 1025.31 1025.56 1025.81 1026.04 1026.25 1026.41 1026.53 1026.59 1026.61 1026.59 1026.53 1026.45
1011.86 1012.70 1013.60 1014.54 1015.47 1016.37 1017.21 1017.98 1018.66 1019.28 1019.83 1020.32 1020.78 1021.21 1021.63 1022.03 1022.40 1022.75 1023.06 1023.33 1023.55 1023.72 1023.85 1023.93 1023.99 1024.04 1024.09 1024.15 1024.24 1024.37 1024.54 1024.74 1024.96 1025.20 1025.44 1025.67 1025.87 1026.03 1026.16 1026.24 1026.28 1026.28 1026.26 1026.22
1011.75 1012.65 1013.61 1014.60 1015.58 1016.50 1017.36 1018.12 1018.80 1019.39 1019.91 1020.38 1020.81 1021.21 1021.60 1021.97 1022.33 1022.66 1022.97 1023.23 1023.44 1023.61 1023.72 1023.79 1023.84 1023.86 1023.89 1023.94 1024.01 1024.11 1024.26 1024.44 1024.65 1024.88 1025.11 1025.34 1025.55 1025.72 1025.87 1025.97 1026.05 1026.09 1026.11 1026.11
1011.65 1012.61 1013.62 1014.65 1015.66 1016.60 1017.46 1018.22 1018.88 1019.46 1019.96 1020.40 1020.81 1021.19 1021.56 1021.92 1022.27 1022.60 1022.90 1023.16 1023.37 1023.53 1023.63 1023.70 1023.73 1023.74 1023.75 1023.78 1023.83 1023.92 1024.05 1024.22 1024.42 1024.64 1024.88 1025.11 1025.33 1025.53 1025.70 1025.84 1025.94 1026.02 1026.08 1026.13
1011.58 1012.59 1013.65 1014.71 1015.73 1016.67 1017.53 1018.28 1018.93 1019.49 1019.97 1020.40 1020.80 1021.18 1021.54 1021.90 1022.25 1022.58 1022.88 1023.14 1023.35 1023.50 1023.60 1023.66 1023.68 1023.68 1023.68 1023.70 1023.74 1023.82 1023.94 1024.10 1024.30 1024.52 1024.76 1025.01 1025.24 1025.45 1025.64 1025.81 1025.94 1026.06 1026.15 1026.23
1011.56 1012.61 1013.70 1014.77 1015.79 1016.72 1017.56 1018.29 1018.92 1019.47 1019.95 1020.37 1020.77 1021.15 1021.53 1021.89 1022.25 1022.59 1022.89 1023.16 1023.36 1023.52 1023.61 1023.66 1023.68 1023.68 1023.67 1023.68 1023.72 1023.79 1023.91 1024.07 1024.27 1024.50 1024.74 1024.99 1025.23 1025.46 1025.66 1025.84 1025.99 1026.12 1026.23 1026.33
1011.59 1012.67 1013.76 1014.83 1015.82 1016.73 1017.54 1018.24 1018.85 1019.39 1019.85 1020.28 1020.69 1021.09 1021.48 1021.86 1022.23 1022.59 1022.90 1023.17 1023.38 1023.53 1023.63 1023.68 1023.69 1023.69 1023.68 1023.69 1023.73 1023.81 1023.93 1024.09 1024.29 1024.52 1024.76 1025.01 1025.25 1025.48 1025.68 1025.86 1026.02 1026.15 1026.26 1026.36
1011.67 1012.75 1013.82 1014.85 1015.80 1016.67 1017.43 1018.10 1018.69 1019.20 1019.67 1020.11 1020.53 1020.94 1021.35 1021.76 1022.15 1022.52 1022.85 1023.12 1023.34 1023.50 1023.60 1023.65 1023.67 1023.67 1023.67 1023.69 1023.74 1023.82 1023.95 1024.11 1024.32 1024.54 1024.78 1025.02 1025.25 1025.47 1025.66 1025.83 1025.97 1026.09 1026.19 1026.27
1011.76 1012.81 1013.84 1014.81 1015.71 1016.51 1017.22 1017.85 1018.40 1018.91 1019.37 1019.81 1020.25 1020.69 1021.12 1021.55 1021.96 1022.34 1022.68 1022.97 1023.19 1023.35 1023.46 1023.52 1023.55 1023.57 1023.58 1023.62 1023.68 1023.78 1023.91 1024.09 1024.29 1024.51 1024.74 1024.97 1025.19 1025.38 1025.55 1025.69 1025.81 1025.91 1025.98 1026.05
1011.83 1012.84 1013.80 1014.70 1015.52 1016.25 1016.90 1017.48 1018.01 1018.49 1018.95 1019.41 1019.86 1020.31 1020.77 1021.22 1021.64 1022.04 1022.38 1022.67 1022.91 1023.08 1023.19 1023.27 1023.31 1023.35 1023.38 1023.44 1023.52 1023.64 1023.79 1023.97 1024.18 1024.39 1024.62 1024.83 1025.02 1025.19 1025.33 1025.45 1025.54 1025.61 1025.67 1025.73
1011.87 1012.80 1013.69 1014.50 1015.24 1015.90 1016.49 1017.03 1017.52 1017.99 1018.45 1018.91 1019.38 1019.84 1020.31 1020.77 1021.20 1021.60 1021.95 1022.24 1022.48 1022.65 1022.78 1022.87 1022.94 1022.99 1023.06 1023.14 1023.25 1023.39 1023.55 1023.75 1023.96 1024.17 1024.38 1024.58 1024.75 1024.90 1025.02 1025.11 1025.18 1025.24 1025.29 1025.34
1011.83 1012.68 1013.48 1014.22 1014.88 1015.48 1016.02 1016.52 1016.99 1017.45 1017.91 1018.37 1018.84 1019.31 1019.78 1020.24 1020.67 1021.06 1021.41 1021.69 1021.93 1022.11 1022.24 1022.35 1022.44 1022.52 1022.61 1022.72 1022.86 1023.02 1023.20 1023.41 1023.62 1023.83 1024.03 1024.22 1024.38 1024.51 1024.61 1024.69 1024.76 1024.81 1024.87 1024.93
Thickness
5639 5646 5650 5649 5652 5655 5650 5643 5633 5631 5628 5625 5619 5614 5608 5602 5597 5592 5587 5583 5580 5577 5575 5573 5571 5570 5568 5566 5564 5562 5560 5558 5555 5552 5550 5548 5545 5543 5540 5537 5534 5531 5528 5525
5637 5648 5650 5648 5650 5650 5647 5644 5636 5629 5621 5620 5615 5608 5601 5595 5591 5586 5580 5576 5571 5568 5565 5562 5560 5559 5556 5554 5552 5550 5548 5545 5543 5540 5538 5535 5532 5530 5527 5525 5522 5519 5515 5513
5627 5640 5642 5632 5640 5639 5636 5637 5633 5623 5617 5612 5605 5600 5594 5590 5585 5580 5574 5568 5563 5559 5556 5552 5550 5547 5545 5543 5541 5539 5536 5534 5531 5529 5526 5524 5522 5519 5516 5513 5510 5507 5504 5502
5624 5629 5618 5628 5644 5641 5631 5626 5626 5621 5613 5607 5600 5592 5586 5582 5577 5571 5565 5559 5554 5549 5546 5542 5540 5537 5535 5533 5531 5529 5526 5524 5522 5520 5517 5514 5511 5508 5505 5503 5500 5498 5495 5493
5622 5619 5621 5631 5638 5635 5625 5615 5616 5612 5604 5597 5589 5581 5573 5570 5567 5561 5555 5549 5544 5540 5537 5533 5531 5529 5526 5524 5522 5519 5517 5515 5513 5511 5508 5505 5502 5500 5497 5495 5492 5489 5487 5484
5626 5618 5615 5627 5641 5642 5628 5607 5609 5605 5597 5590 5585 5576 5567 5561 5557 5551 5545 5539 5535 5531 5528 5525 5522 5521 5518 5515 5512 5510 5508 5507 5504 5502 5500 5497 5494 5492 5489 5487 5485 5482 5479 5477
5626 5619 5622 5634 5642 5638 5614 5608 5606 5599 5592 5586 5580 5574 5564 5555 5548 5542 5537 5532 5527 5523 5519 5517 5515 5512 5509 5506 5504 5503 5501 5499 5496 5494 5492 5489 5486 5485 5482 5480 5478 5475 5473 5470
5624 5615 5615 5635 5634 5623 5615 5611 5603 5594 5587 5579 5572 5564 5556 5548 5541 5535 5530 5525 5520 5516 5512 5510 5508 5505 5502 5499 5498 5496 5494 5491 5489 5487 5486 5483 5480 5477 5475 5473 5470 5467 5465 5463
5625 5620 5627 5631 5626 5622 5616 5606 5597 5588 5581 5574 5565 5557 5549 5541 5534 5528 5524 5519 5514 5510 5507 5504 5503 5500 5496 5493 5492 5490 5487 5484 5482 5481 5478 5476 5473 5470 5468 5465 5462 5460 5458 5455
5627 5626 5626 5624 5621 5616 5611 5602 5594 5586 5578 5570 5561 5553 5544 5536 5529 5523 5518 5514 5509 5506 5502 5499 5497 5495 5492 5489 5487 5484 5480 5478 5476 5474 5471 5469 5467 5465 5462 5459 5456 5455 5452 5450
5626 5625 5623 5619 5617 5611 5604 5597 5588 5580 5572 5565 5557 5548 5540 5532 5526 5520 5515 5510 5506 5502 5498 5495 5492 5490 5488 5485 5482 5479 5476 5473 5471 5469 5466 5463 5461 5459 5457 5455 5454 5451 5449 5447
5631 5632 5625 5617 5614 5610 5601 5592 5584 5576 5566 5559 5553 5545 5537 5529 5523 5517 5512 5508 5503 5499 5495 5492 5489 5486 5484 5482 5479 5475 5472 5470 5467 5465 5462 5459 5456 5454 5454 5453 5452 5450 5448 5446
5651 5642 5632 5623 5615 5608 5599 5590 5582 5574 5565 5556 5549 5543 5535 5527 5521 5516 5511 5507 5502 5498 5494 5490 5487 5484 5482 5480 5477 5474 5470 5468 5465 5463 5460 5457 5454 5452 5449 5449 5449 5448 5447 5445
5655 5644 5628 5620 5612 5606 5598 5589 5580 5571 5563 5556 5548 5541 5534 5527 5521 5516 5511 5507 5503 5499 5494 5490 5487 5484 5482 5479 5476 5473 5470 5468 5465 5462 5459 5456 5454 5451 5449 5446 5445 5444 5446 5446
5649 5644 5632 5622 5612 5604 5596 5587 5577 5568 5561 5553 5547 5540 5533 5526 5520 5516 5512 5509 5504 5499 5495 5491 5487 5484 5482 5479 5476 5473 5470 5467 5465 5462 5459 5457 5455 5452 5449 5447 5444 5443 5443 5444
5643 5637 5629 5620 5611 5602 5594 5586 5577 5568 5561 5553 5546 5540 5534 5528 5522 5517 5513 5509 5503 5498 5495 5491 5488 5486 5483 5480 5477 5473 5470 5469 5466 5462 5459 5457 5454 5451 5448 5446 5443 5442 5441 5441
5641 5632 5626 5618 5610 5602 5595 5587 5579 5571 5563 5555 5548 5542 5535 5529 5523 5517 5514 5510 5505 5501 5497 5493 5490 5488 5485 5481 5478 5474 5471 5469 5468 5463 5460 5457 5454 5451 5448 5446 5443 5442 5442 5442
5651 5642 5634 5625 5615 5605 5597 5589 5582 5573 5565 5558 5551 5544 5537 5530 5524 5519 5516 5512 5507 5502 5499 5496 5492 5490 5487 5483 5480 5477 5473 5470 5467 5464 5460 5457 5454 5452 5449 5447 5445 5443 5442 5442
5649 5641 5633 5626 5618 5609 5600 5591 5583 5575 5568 5561 5553 5545 5539 5533 5528 5523 5519 5514 5509 5504 5501 5499 5496 5492 5489 5486 5484 5480 5477 5474 5470 5466 5463 5460 5456 5452 5450 5448 5446 5445 5444 5443
5648 5642 5634 5626 5619 5610 5602 5594 5586 5578 5571 5564 5556 5548 5541 5536 5532 5527 5522 5516 5512 5509 5507 5503 5499 5495 5492 5489 5488 5484 5481 5478 5474 5469 5465 5461 5457 5454 5451 5450 5448 5446 5445 5444
5649 5642 5635 5627 5619 5612 5604 5596 5588 5580 5573 5566 5559 5551 5545 5540 5535 5530 5524 5518 5517 5515 5511 5508 5503 5499 5496 5494 5491 5487 5484 5481 5477 5473 5468 5464 5460 5457 5454 5452 5450 5448 5447 5446
5649 5642 5635 5628 5620 5611 5605 5598 5590 5583 5575 5568 5562 5556 5549 5543 5539 5533 5530 5525 5522 5520 5515 5511 5507 5504 5501 5498 5494 5491 5489 5485 5481 5476 5472 5467 5463 5460 5457 5455 5453 5451 5450 5448
5649 5643 5636 5628 5621 5613 5605 5599 5593 5586 5578 5572 5566 5559 5553 5547 5542 5537 5532 5530 5528 5524 5520 5516 5512 5509 5506 5502 5498 5496 5493 5489 5485 5480 5476 5472 5468 5465 5462 5459 5457 5455 5453 5451
5647 5641 5635 5628 5621 5612 5604 5599 5594 5588 5582 5576 5570 5565 5558 5551 5546 5544 5541 5538 5533 5529 5524 5521 5518 5514 5510 5506 5503 5500 5497 5494 5490 5486 5481 5477 5474 5470 5467 5464 5461 5459 5457 5455
5646 5639 5633 5627 5620 5614 5607 5601 5594 5588 5583 5577 5573 5568 5564 5559 5553 5549 5545 5541 5537 5533 5528 5525 5522 5518 5514 5510 5508 5505 5502 5499 5495 5491 5487 5483 5479 5475 5472 5470 5467 5464 5462 5460
5643 5638 5633 5628 5623 5615 5609 5603 5596 5590 5585 5579 5574 5571 5567 5563 5559 5554 5549 5546 5541 5537 5533 5529 5525 5522 5517 5514 5512 5509 5506 5503 5500 5496 5493 5489 5485 5482 5478 5475 5473 5470 5467 5465
5640 5635 5629 5624 5619 5615 5610 5604 5598 5593 5588 5583 5578 5574 5570 5565 5561 5557 5553 5548 5544 5541 5537 5534 5530 5527 5523 5519 5516 5513 5510 5508 5505 5502 5499 5495 5491 5488 5485 5482 5478 5475 5472 5470